Theta_e
289 290 290 291 291 290 290 290 291 290 292 293 291 292 295 295 294 293 296 296 296 300 302 303 304 302 302 303 303 304 305 305 306 307 310 317 320 322 324 326 329 330 331 333 334 335 336 337 337 338 339 340 342 343 344 344 345 345 346 346 345 346 346 346 346 348 348 349 349 349 349 349 349 349 349 349 350 350 350 350 351 351 352 352 352 352 353
288 289 289 290 289 289 290 290 291 292 292 293 294 294 295 296 294 296 297 297 297 301 303 302 302 303 301 302 304 307 306 304 306 307 311 317 321 322 324 326 329 331 332 334 335 336 336 336 337 337 338 340 341 342 343 344 345 346 347 346 345 345 345 346 347 348 349 349 349 349 349 349 349 349 349 349 349 349 349 350 351 351 352 352 352 352 352
285 288 291 291 290 290 288 291 292 295 298 299 300 299 298 298 296 297 296 297 298 302 303 307 308 310 308 309 312 312 310 307 311 313 314 318 321 323 325 327 329 331 333 334 335 336 336 337 337 337 338 340 341 342 343 344 345 347 347 346 346 346 346 347 348 349 349 349 349 348 349 349 349 349 349 349 350 349 349 350 350 351 351 350 351 352 352
283 288 289 289 290 290 289 290 294 296 297 299 299 298 301 297 294 295 295 295 297 300 309 307 320 323 323 322 323 324 321 309 312 315 317 319 322 324 326 328 330 331 333 334 334 335 336 337 337 338 339 339 340 341 343 344 346 347 347 347 346 347 347 348 348 349 349 349 349 349 349 349 349 350 350 350 349 349 349 349 350 350 349 349 350 350 351
281 287 289 288 288 292 291 292 295 296 298 302 306 306 306 305 305 299 296 296 303 309 312 316 321 324 324 325 326 327 328 323 312 315 318 320 322 324 327 329 331 331 333 334 335 336 337 337 337 338 339 339 340 341 343 345 347 347 347 347 347 348 348 349 349 349 350 349 350 350 350 350 350 350 350 349 349 349 349 350 350 349 349 349 349 350 350
280 285 287 288 289 284 286 298 300 300 298 299 301 303 304 305 306 304 307 308 312 313 317 320 321 324 326 327 330 331 331 329 320 313 317 320 323 325 327 330 331 332 334 335 336 337 338 338 339 340 341 340 341 342 344 346 347 348 348 348 348 348 349 349 350 350 350 350 350 350 351 351 351 350 350 349 349 350 350 350 350 349 349 349 349 349 349
279 284 287 290 284 286 297 301 301 303 302 302 299 305 307 306 306 306 306 310 315 317 317 322 325 326 330 333 332 333 334 334 332 316 316 319 323 324 327 329 331 333 334 335 336 337 338 339 340 340 340 341 342 342 343 344 346 348 349 349 349 350 350 350 351 351 351 351 350 351 351 351 351 351 350 350 350 350 350 350 349 349 349 349 349 349 349
285 282 281 280 284 297 303 301 301 304 304 302 301 304 307 306 305 306 305 309 318 320 321 322 322 323 325 331 334 334 335 335 336 335 319 319 322 324 326 329 330 332 334 335 336 337 340 340 340 340 340 341 341 341 343 343 345 347 349 349 349 350 350 351 351 352 352 351 351 352 352 352 351 351 351 351 350 351 351 351 351 351 351 350 349 349 350
278 280 280 283 291 296 296 296 296 299 296 297 296 295 305 306 306 306 306 307 313 320 322 324 325 325 326 329 331 336 335 336 338 340 339 330 322 324 326 328 329 333 335 335 336 340 338 339 339 340 341 342 342 342 342 342 344 345 348 348 349 350 351 351 352 353 353 352 352 352 352 352 351 351 351 351 352 352 351 351 350 350 350 350 351 350 350
286 278 277 280 285 286 291 297 299 302 303 303 303 299 303 307 307 308 307 304 307 314 321 325 326 325 327 323 326 332 334 337 339 343 343 340 331 327 328 329 329 332 333 336 339 337 337 338 339 340 341 342 342 342 342 342 343 344 346 347 349 351 351 352 353 354 354 353 353 353 353 352 352 352 353 353 352 353 351 350 350 350 351 351 351 351 350
282 280 276 277 281 289 294 295 299 302 304 304 305 299 299 305 306 307 307 304 305 309 317 321 327 326 320 321 324 330 333 335 341 342 343 344 343 335 331 331 331 333 336 337 338 338 337 336 337 341 342 343 342 342 343 342 343 343 345 347 349 350 351 353 354 354 355 354 354 353 353 353 353 353 353 353 354 354 353 353 352 352 352 351 351 351 351
283 282 279 277 285 283 295 298 301 304 306 307 302 295 295 304 306 306 308 305 305 305 311 318 320 320 318 318 324 331 332 336 340 342 343 344 345 345 345 338 336 338 342 341 337 336 336 337 339 342 343 343 344 343 343 343 343 343 345 347 349 351 352 353 354 355 355 355 355 354 354 354 355 354 355 355 355 354 354 353 353 353 352 352 350 350 351
285 285 282 286 289 298 299 301 304 306 307 305 296 289 297 306 307 307 308 305 306 307 307 312 315 319 323 326 329 330 331 333 336 340 344 344 346 346 348 348 351 347 346 343 341 340 340 340 340 342 343 343 344 345 345 344 344 344 347 349 351 352 353 354 355 355 356 356 355 356 356 355 355 355 356 355 355 354 353 353 353 353 352 352 351 351 351
282 283 282 282 287 297 302 304 306 307 304 293 291 303 309 307 305 305 308 306 307 308 307 309 312 317 325 327 326 327 329 331 333 336 340 341 342 344 347 351 350 348 348 349 350 350 350 346 344 344 345 346 347 347 346 346 351 356 354 349 351 352 353 354 355 356 356 357 358 357 358 358 356 356 357 357 356 355 355 354 353 352 352 351 351 351 351
290 289 286 285 282 294 304 305 304 304 297 298 304 306 307 307 305 304 305 307 307 309 307 309 312 313 318 321 322 323 324 327 330 333 335 337 338 339 340 341 345 345 344 345 346 348 351 351 351 351 351 350 351 351 351 352 355 356 357 355 349 351 352 353 355 356 357 358 357 358 358 358 357 356 357 356 356 356 355 354 353 352 352 352 351 350 351
285 285 283 283 293 298 304 303 295 299 299 304 305 306 304 306 306 305 303 304 307 310 310 309 310 311 311 314 319 322 322 323 326 329 332 334 337 339 340 341 341 343 341 341 342 344 346 349 351 352 351 350 351 351 350 353 355 359 357 356 350 348 350 352 353 355 357 358 359 359 359 359 358 357 357 357 356 356 355 353 352 352 352 352 351 350 349
287 286 291 295 299 301 303 303 302 303 304 304 305 304 302 302 301 305 305 304 306 310 311 311 310 309 309 311 314 319 321 322 323 325 328 330 333 336 338 339 341 341 340 339 340 341 343 344 346 348 350 350 350 349 350 354 354 356 355 350 344 346 347 349 351 353 355 357 358 359 359 359 357 357 357 356 355 355 355 353 352 351 351 351 350 350 349
294 296 299 298 297 297 301 304 304 302 303 304 305 303 301 302 302 303 304 305 307 308 310 311 310 310 309 309 309 313 319 322 323 325 326 328 331 332 335 338 340 340 340 340 339 339 340 343 344 346 346 348 347 347 350 354 353 356 357 356 354 348 344 345 347 351 352 353 355 357 358 359 358 358 357 356 354 354 354 353 352 351 351 350 349 349 349
289 288 296 295 294 296 298 302 304 305 305 304 305 303 302 302 303 303 305 306 308 309 310 309 310 308 310 308 309 310 313 318 322 323 323 325 327 330 332 335 339 338 339 338 338 338 338 340 342 343 344 345 346 347 348 349 354 356 357 356 356 354 351 346 345 348 351 351 352 354 356 357 358 358 358 356 355 353 353 353 352 351 351 350 349 349 348
290 290 293 295 296 298 300 305 302 302 302 303 303 304 305 304 305 305 305 307 309 310 307 308 309 309 309 309 307 308 309 312 318 321 323 323 325 328 331 334 338 337 337 337 337 337 337 338 339 340 341 341 342 344 345 348 351 354 355 355 353 352 351 351 347 347 349 355 354 352 354 355 355 356 356 356 355 354 353 353 352 351 351 350 349 349 349
291 294 296 295 296 301 302 303 303 303 303 302 302 303 304 304 304 304 305 307 310 309 307 308 309 308 308 308 308 307 307 310 312 317 323 324 324 327 330 333 336 335 336 336 335 337 336 336 337 337 338 339 341 342 343 345 348 351 353 354 352 350 351 351 350 351 349 352 355 353 353 344 322 318 325 351 355 356 356 357 356 355 353 353 352 353 353
286 288 290 294 288 289 294 297 299 300 302 303 302 302 303 303 303 304 304 306 310 310 308 308 310 308 308 308 308 307 307 307 310 313 320 324 324 326 329 332 333 335 336 336 335 335 335 335 336 336 336 337 339 341 342 343 346 348 350 349 349 349 349 350 350 353 351 352 354 352 346 336 327 318 307 298 303 327 345 319 316 318 331 352 355 356 354
286 292 295 296 295 294 295 297 299 300 302 302 301 301 301 303 304 304 304 305 307 307 307 309 309 309 309 308 308 307 307 307 309 312 319 324 323 325 328 329 330 333 334 337 336 336 334 335 335 335 335 336 337 338 340 342 344 344 346 347 347 347 348 349 348 353 353 352 349 345 342 337 335 330 327 320 299 296 304 309 303 302 309 312 318 333 351
295 297 296 297 296 294 296 299 300 300 302 302 301 302 303 304 304 305 305 306 306 306 308 310 311 310 310 309 309 307 307 308 309 312 321 327 325 326 327 328 329 330 332 333 333 334 333 333 332 333 335 334 335 338 339 340 341 342 344 346 346 345 347 348 348 348 347 346 342 341 339 338 337 336 336 333 328 304 297 299 299 295 294 300 310 315 320
293 297 298 298 298 298 299 300 301 301 303 304 302 302 303 304 305 306 305 306 309 309 309 309 311 311 311 310 309 308 307 308 311 316 324 327 326 326 326 327 328 329 330 332 332 331 331 333 334 334 334 334 335 336 337 339 340 341 342 344 343 344 347 348 348 349 343 342 341 340 338 338 338 339 340 340 334 328 320 301 297 296 296 295 297 305 310
298 298 299 299 299 299 300 301 301 302 303 303 304 305 307 309 308 308 306 306 309 311 310 311 310 310 312 310 309 309 308 309 314 318 318 321 323 324 324 325 327 329 331 331 330 331 331 332 332 333 334 335 334 335 337 337 338 340 340 341 341 344 348 349 345 344 343 341 340 340 340 340 341 341 342 342 338 332 332 331 329 315 303 298 296 297 296
299 300 298 296 296 297 299 297 297 301 302 304 304 304 305 306 309 309 309 309 310 312 311 312 311 311 311 311 310 310 310 311 312 311 315 320 323 323 324 326 327 329 331 331 331 336 341 337 334 333 333 334 334 335 336 336 337 338 339 340 340 348 353 352 345 344 343 342 341 340 340 341 341 342 341 339 335 334 337 338 335 331 325 318 304 296 303
299 299 299 294 293 295 297 299 301 301 303 304 305 305 305 305 305 305 305 307 309 309 310 311 310 310 308 307 307 307 308 308 308 310 316 321 322 323 323 324 326 328 330 330 329 331 334 330 330 330 332 333 333 334 335 336 336 337 337 338 340 341 341 343 345 345 343 342 341 340 340 341 342 341 337 336 335 336 332 332 327 321 318 313 310 304 298
298 298 299 299 298 299 300 301 302 302 304 306 308 306 305 303 303 303 304 307 307 307 308 309 311 311 309 308 308 307 308 308 309 313 317 320 321 320 320 322 324 328 326 325 324 325 327 328 329 330 331 330 330 333 334 335 335 336 336 336 337 338 341 341 342 343 341 340 340 340 336 336 338 337 336 335 334 332 330 328 324 320 316 315 317 317 314
298 299 299 299 299 299 299 299 300 301 302 305 305 304 304 302 302 303 304 306 307 306 307 307 307 308 310 309 309 308 308 308 312 317 319 317 316 317 319 321 325 323 322 322 322 323 323 324 324 325 325 327 329 331 333 334 334 335 336 336 336 336 337 340 342 340 338 337 335 331 335 336 337 336 334 334 333 331 328 325 323 320 320 321 320 320 318
298 298 298 299 298 298 298 298 300 301 302 304 304 303 303 302 301 301 302 303 304 305 307 307 307 308 309 310 310 311 311 313 315 314 314 314 314 316 318 321 321 319 318 319 320 321 321 322 322 322 324 326 328 330 332 333 334 335 335 335 335 329 329 333 334 338 335 334 334 335 334 334 335 334 333 332 332 331 329 326 325 325 326 325 324 322 321
296 296 297 297 297 297 297 298 299 300 301 303 303 301 301 301 300 300 301 302 302 303 305 305 306 308 309 310 311 312 312 313 311 312 312 313 314 315 318 320 320 320 317 317 318 319 319 320 320 322 324 325 326 328 330 332 334 335 334 339 336 335 333 329 333 333 335 336 334 334 334 334 334 333 332 332 331 330 328 327 326 327 328 325 323 323 323
295 293 294 295 296 296 296 297 298 299 301 302 304 304 302 302 302 303 303 303 303 304 303 303 305 307 309 310 311 312 313 312 311 311 311 312 313 316 318 320 318 317 316 316 316 317 318 318 320 321 322 322 322 324 325 327 329 331 332 333 334 337 338 331 330 334 335 333 333 334 334 334 334 334 332 332 331 331 330 329 328 327 327 326 325 325 324
295 294 295 296 296 295 295 296 298 299 301 303 305 306 303 302 302 302 303 304 304 304 304 304 305 306 309 311 313 314 313 312 312 311 310 310 312 315 317 318 317 316 315 315 315 316 317 318 320 320 320 319 320 321 323 324 325 326 327 329 332 333 333 333 332 334 333 332 333 335 334 334 334 333 332 332 332 331 330 329 328 327 325 322 320 317 308
299 298 299 299 299 299 299 298 299 299 300 301 303 307 306 303 302 302 304 304 303 304 305 306 306 310 313 314 313 311 310 310 309 309 309 311 312 314 316 316 315 315 314 313 313 314 316 318 321 319 318 318 319 321 322 322 321 323 325 326 329 330 333 334 333 332 332 333 334 333 333 333 332 333 332 331 331 330 330 329 327 324 321 320 320 321 318
299 298 298 298 299 300 299 299 300 300 300 301 303 305 307 308 305 302 304 306 306 306 306 308 312 314 311 309 309 308 308 308 309 309 310 311 312 313 313 313 312 311 311 311 311 313 315 317 321 321 319 318 318 320 323 321 319 320 323 323 325 326 328 329 330 331 332 333 332 332 331 332 331 331 332 330 330 328 327 325 324 323 322 322 322 322 322
299 298 298 298 298 299 299 299 300 300 300 301 302 303 305 308 308 308 306 304 306 308 310 313 311 309 307 307 308 307 307 308 309 309 309 311 312 311 311 310 311 310 310 308 310 313 314 315 317 318 316 316 317 318 321 322 318 318 319 320 321 322 324 324 325 327 327 330 330 330 330 328 328 328 328 326 325 325 324 323 324 322 322 322 322 321 320
298 298 298 298 298 298 299 299 300 300 300 300 301 303 305 306 308 309 309 309 309 310 311 310 309 308 308 308 307 307 307 308 308 308 308 309 309 308 308 308 308 309 307 307 311 312 313 314 315 313 313 314 315 317 319 319 320 316 316 317 318 319 319 320 320 321 321 321 322 323 323 322 322 321 321 322 322 321 321 320 320 319 318 319 320 319 319
298 298 298 299 299 298 299 300 300 300 300 299 299 300 303 305 306 307 307 307 309 309 308 307 307 307 307 306 306 307 307 308 308 308 307 307 308 307 307 308 309 310 310 312 311 312 312 312 312 311 311 312 314 316 318 318 317 314 314 314 314 315 315 316 317 318 318 318 318 317 317 317 316 316 315 316 317 317 317 316 314 314 313 314 314 313 312
298 298 297 298 297 298 298 298 299 299 300 300 299 298 300 302 302 302 303 305 307 309 307 307 306 306 306 306 306 306 307 307 307 307 307 307 308 307 307 307 309 311 312 312 312 312 312 312 310 309 310 311 312 313 315 315 315 312 311 311 310 311 310 311 311 311 313 314 313 314 313 313 312 312 312 312 312 311 310 310 310 310 310 310 310 310 310
300 299 298 298 298 298 298 298 298 299 299 300 299 299 300 300 300 300 301 302 303 305 306 306 305 305 305 305 305 306 307 307 307 307 308 307 306 306 305 304 308 310 310 310 310 311 311 311 309 308 309 311 311 312 311 313 311 310 309 309 309 308 307 307 307 307 307 308 309 309 309 308 308 307 307 307 307 307 307 307 306 306 306 306 305 306 306
300 300 299 298 298 298 298 298 299 298 299 299 300 300 300 300 300 299 300 301 301 302 302 304 307 306 305 306 306 306 305 305 306 306 306 305 304 304 303 305 309 309 310 310 310 309 308 309 310 309 308 309 310 311 311 309 308 309 309 308 308 307 306 305 305 305 306 305 305 304 305 305 305 305 305 304 303 304 304 303 303 303 303 303 303 303 303
301 300 299 299 299 298 298 298 298 298 298 299 299 299 300 300 300 300 300 300 300 300 300 300 302 304 304 304 304 304 304 305 305 305 305 305 306 306 306 306 309 309 310 309 307 307 307 307 308 308 310 309 308 310 309 306 306 306 306 306 307 307 307 306 305 304 304 302 302 302 302 302 302 302 302 301 301 301 301 300 300 300 300 300 300 300 300
301 300 300 300 299 299 298 298 298 298 297 298 299 299 299 299 299 299 299 299 299 300 299 298 299 300 301 302 302 301 302 303 304 305 303 303 304 306 308 307 308 309 309 308 307 306 306 307 307 308 311 310 308 308 306 304 304 304 304 304 304 304 304 304 304 303 302 302 301 300 301 302 300 300 300 299 299 299 299 299 299 299 299 299 299 299 299
299 300 301 300 300 299 298 297 297 297 298 299 299 299 299 298 299 299 299 299 299 299 300 298 298 299 299 300 301 301 302 302 303 304 303 302 302 302 307 309 308 308 308 308 307 306 305 305 307 308 308 307 307 306 303 303 303 303 303 303 303 303 302 302 302 302 302 301 301 301 301 300 299 299 299 300 300 299 298 298 298 298 298 298 298 297 298
298 298 300 303 300 300 300 299 299 299 299 298 298 299 300 299 299 299 299 298 298 298 298 298 298 298 299 299 301 302 302 302 302 303 304 304 304 305 309 308 307 308 308 308 306 305 306 309 307 306 306 306 306 303 302 303 303 302 302 302 302 303 302 301 301 301 300 300 300 299 299 298 298 298 298 298 298 299 299 300 299 298 298 298 298 298 298
296 296 298 300 301 302 302 300 300 299 298 297 296 297 299 300 300 299 299 299 298 298 299 299 299 299 299 299 300 300 300 300 300 302 303 304 306 308 309 309 309 308 307 306 306 305 306 306 307 306 306 306 306 302 301 301 301 301 301 301 301 301 301 300 300 300 300 300 300 300 300 299 297 297 299 298 298 298 298 298 297 297 298 298 298 298 298
296 295 295 298 300 301 301 300 298 297 297 296 297 298 299 299 299 300 300 299 299 298 299 299 299 299 300 300 300 302 302 301 297 298 302 303 304 305 306 306 307 307 306 307 306 307 307 306 306 305 305 305 303 301 301 301 301 301 301 301 300 300 300 300 299 299 299 299 299 298 297 297 297 298 298 297 297 297 297 297 297 298 298 297 297 297 297
296 296 297 297 297 299 301 300 300 299 298 299 299 299 299 299 299 300 300 300 299 298 298 298 298 299 299 301 302 301 304 305 302 300 304 304 303 303 304 307 307 307 306 304 303 304 306 305 305 304 304 304 301 300 300 301 301 301 301 300 301 301 301 301 301 301 300 300 300 300 299 299 298 298 298 298 299 299 299 298 298 298 298 298 297 297 297
297 297 296 297 296 296 297 298 298 298 300 300 299 300 300 300 298 297 300 299 300 300 300 299 299 299 299 300 301 303 303 304 305 304 304 304 304 304 304 305 306 306 305 303 303 303 305 305 305 304 303 301 301 301 300 300 300 300 300 300 300 300 301 301 301 301 301 301 300 299 299 299 298 299 299 299 298 298 297 297 297 297 297 297 296 296 296
296 296 296 298 298 299 298 299 300 300 300 301 301 302 302 301 300 300 301 300 300 300 299 300 300 300 300 301 302 302 304 304 305 305 304 304 304 305 305 305 304 304 304 303 302 302 301 301 301 303 301 301 300 300 300 300 300 300 300 299 300 300 300 300 300 299 299 298 298 298 298 298 297 297 297 297 297 296 296 296 296 296 295 295 295 294 294
296 296 297 297 297 297 298 299 301 301 302 303 303 302 301 301 301 301 301 300 300 300 299 298 299 300 301 301 302 302 303 304 305 304 305 304 303 302 304 304 303 303 301 301 300 300 301 303 304 303 302 300 300 299 301 301 299 299 299 300 299 298 299 298 298 298 297 297 297 297 297 297 297 297 297 297 297 297 296 296 295 295 295 294 294 294 294
Wind_Speed
8 9 8 10 11 10 12 14 16 17 17 10 9 9 7 6 9 12 4 4 7 18 15 11 8 5 9 12 12 12 13 11 10 10 10 14 17 15 15 15 16 17 17 16 17 18 18 17 17 17 15 14 13 13 13 14 15 16 15 15 16 16 15 15 15 15 14 13 12 12 13 12 13 13 13 12 12 11 11 11 10 10 11 11 11 11 11
6 9 9 12 12 10 10 12 13 15 14 15 12 13 12 13 10 7 7 9 13 15 10 5 3 3 5 5 4 4 5 10 11 12 13 15 17 17 17 17 18 17 18 18 17 18 16 17 18 16 15 15 16 17 17 17 16 16 15 15 15 15 16 16 14 14 13 12 12 12 12 13 13 13 13 12 12 12 12 12 11 10 10 11 11 12 12
5 9 8 7 8 6 10 11 11 11 12 14 13 11 12 9 8 12 14 10 14 4 4 4 4 5 4 3 5 6 7 7 8 11 13 14 15 15 16 17 17 17 17 16 15 16 17 18 18 17 17 17 17 17 16 16 16 16 16 15 16 16 16 15 14 13 12 13 12 13 13 13 12 13 13 11 11 12 12 12 12 11 11 12 12 12 12
5 4 2 6 6 9 11 10 6 7 9 9 5 2 2 4 6 5 8 10 13 5 13 6 5 8 10 9 11 11 11 8 6 10 12 14 14 14 15 16 16 16 16 15 16 18 18 19 18 17 15 15 15 16 16 17 16 15 15 15 16 15 15 13 13 14 13 13 13 13 13 14 13 12 12 12 12 12 12 12 12 11 12 13 13 12 11
4 7 3 9 12 4 2 5 4 5 4 6 3 3 9 6 3 2 8 9 5 12 11 4 6 6 9 10 10 11 12 12 7 8 11 13 13 15 16 16 16 17 17 18 19 19 18 18 18 18 18 17 17 17 17 16 14 15 16 16 15 14 14 14 14 13 13 13 14 13 14 14 13 12 13 12 13 12 13 13 12 13 13 13 13 13 13
5 5 7 7 0 7 7 5 1 2 3 8 9 10 10 9 5 2 2 7 11 11 9 4 4 8 7 5 6 4 6 10 10 7 6 7 10 13 15 17 18 17 15 15 17 19 20 20 21 18 18 19 17 14 13 12 14 14 14 14 14 14 13 13 13 13 13 14 14 14 14 13 13 13 13 14 14 13 12 12 12 13 14 14 13 13 13
5 5 6 2 5 6 7 7 8 8 1 8 12 4 13 12 14 14 12 12 13 12 9 5 1 3 1 3 9 12 13 11 10 7 6 5 8 9 11 13 14 14 16 16 15 14 15 16 13 12 12 9 9 11 13 14 13 14 14 14 13 13 14 13 13 14 14 14 15 14 14 14 13 14 14 13 14 13 12 12 13 14 14 13 13 13 14
2 4 1 4 4 1 0 3 8 8 5 5 12 2 12 16 16 13 11 13 12 10 10 11 8 5 6 2 7 14 15 14 12 11 5 6 7 9 10 12 12 13 14 15 17 17 13 12 12 13 13 12 14 13 13 13 13 13 13 14 14 13 14 14 15 14 14 14 14 14 14 14 14 14 14 14 14 13 12 12 12 11 11 12 13 14 14
3 4 2 6 4 2 6 4 8 11 5 9 5 5 8 14 15 16 13 15 15 14 12 10 9 6 3 5 12 16 17 16 14 11 8 5 6 6 4 5 5 5 7 9 9 9 11 14 13 12 12 12 12 12 12 12 12 13 13 14 14 14 14 14 14 14 15 15 15 15 14 14 14 15 14 14 13 11 12 12 11 11 13 11 11 12 13
2 0 4 2 1 6 2 3 6 3 5 7 7 4 4 14 18 16 14 14 15 14 15 14 9 4 6 13 10 14 18 17 14 12 10 7 1 8 8 8 9 8 8 9 9 11 11 11 11 10 12 13 12 12 12 12 13 13 14 14 13 13 14 14 15 15 15 16 15 15 14 15 15 15 15 13 13 12 13 12 12 12 11 11 12 12 14
4 1 1 2 3 2 3 10 12 11 6 8 2 4 4 10 15 17 15 16 17 15 15 15 10 7 8 6 8 13 16 16 13 12 12 9 7 3 10 13 11 11 11 12 12 12 11 11 9 11 12 13 13 12 12 13 14 14 14 14 14 14 15 15 15 15 15 15 15 15 14 15 15 15 15 14 14 12 11 11 12 10 11 10 10 11 12
5 3 2 3 4 3 5 12 12 13 9 4 5 2 3 10 16 16 15 16 17 16 15 12 10 12 8 7 8 12 14 12 12 12 13 12 11 10 8 7 11 11 11 12 12 13 14 13 12 13 13 12 12 11 12 12 13 14 14 14 14 14 13 14 13 13 13 14 14 14 15 15 14 14 13 10 9 10 11 10 11 10 11 10 11 10 10
6 7 5 3 3 2 10 12 15 13 8 3 2 3 2 9 14 14 13 14 15 15 14 13 10 9 6 4 6 8 13 14 15 14 13 12 12 12 11 9 7 10 8 11 11 11 11 12 13 14 14 13 13 11 11 11 13 11 9 9 10 12 11 11 11 12 12 13 15 14 14 14 14 13 11 12 11 12 11 10 11 11 11 10 11 12 10
6 6 4 5 1 1 10 13 9 11 1 5 5 3 4 7 11 14 12 13 15 14 14 11 9 10 10 6 7 13 14 11 12 13 14 15 15 15 13 13 11 10 11 11 11 10 7 9 9 9 10 10 9 9 9 8 7 5 6 8 8 9 10 11 12 12 12 12 13 12 12 11 10 11 11 12 11 12 10 10 12 12 11 11 10 11 10
3 2 2 1 2 2 13 15 5 18 6 4 4 4 5 7 10 13 13 11 13 14 13 14 11 13 11 12 12 12 14 15 14 15 15 16 15 14 14 14 12 10 12 12 11 10 8 10 9 11 13 12 10 9 9 6 5 5 6 6 7 9 10 11 11 11 11 13 12 11 11 12 13 13 11 11 11 11 11 11 11 12 12 11 10 10 9
2 2 2 1 4 6 9 10 7 6 5 7 10 8 8 10 11 13 12 12 12 13 12 14 14 13 14 14 15 13 14 15 15 15 15 16 16 13 13 12 10 10 13 11 11 10 10 10 9 11 14 13 11 11 8 4 4 5 5 6 8 9 9 11 11 11 12 12 12 12 13 12 12 13 11 11 11 10 11 11 10 11 10 10 9 10 10
1 0 3 3 1 6 8 8 8 8 8 9 10 9 6 8 11 13 10 13 14 13 12 11 12 12 15 13 12 12 11 12 14 14 15 15 15 14 11 11 10 10 11 12 10 11 11 11 10 9 11 14 11 11 5 4 5 6 6 6 6 7 8 9 10 11 11 11 12 12 12 12 12 12 12 11 10 10 10 10 10 10 10 10 10 10 10
7 3 1 3 8 10 5 6 7 9 9 8 9 10 10 10 10 9 11 13 13 13 11 10 10 12 15 14 13 13 13 13 13 14 16 16 16 14 11 11 11 9 9 10 11 10 11 11 11 9 9 11 13 7 5 5 5 7 7 7 6 6 6 6 7 7 8 9 9 10 11 10 11 11 12 11 11 10 10 11 10 10 10 9 10 10 9
4 4 4 10 10 13 8 4 7 7 5 7 6 8 8 11 13 14 13 13 13 12 12 11 11 11 13 14 11 10 11 11 12 12 13 14 14 14 14 11 8 9 9 9 9 9 11 9 9 8 10 9 8 6 5 4 5 6 7 7 7 6 5 5 6 7 8 8 8 8 9 9 9 9 9 9 10 10 10 10 10 10 10 9 8 8 9
3 5 6 9 13 12 5 4 5 6 6 10 10 7 8 9 12 12 12 13 14 12 12 13 11 11 11 13 14 13 11 9 9 11 12 13 13 13 12 11 10 8 9 8 7 8 8 7 7 8 8 7 6 6 5 5 5 6 7 6 5 4 4 3 4 5 7 9 9 8 9 9 9 8 8 8 9 11 11 11 11 11 10 10 10 10 9
7 6 3 15 11 7 9 4 4 6 8 10 14 11 9 9 10 13 14 12 11 13 11 12 12 12 14 12 12 12 13 12 10 9 10 11 11 10 12 11 10 7 5 6 5 6 6 5 6 7 7 6 6 7 6 6 6 8 6 6 5 5 4 2 3 4 5 5 6 7 7 5 2 2 1 5 7 7 6 6 9 10 10 9 8 8 8
5 7 10 14 10 6 9 12 12 13 11 11 13 14 11 9 10 10 12 13 13 12 12 10 11 12 12 13 12 13 12 13 12 11 9 8 10 11 10 8 9 9 8 5 5 4 4 4 5 6 6 6 5 5 5 5 6 7 6 5 5 4 3 2 1 2 3 4 4 5 5 6 5 4 8 6 4 1 3 5 6 3 3 8 8 7 7
8 11 11 9 8 12 12 13 15 13 10 10 14 15 14 11 8 8 11 12 10 11 13 10 9 11 12 13 11 12 12 13 12 10 9 9 9 9 9 9 11 10 8 7 5 4 3 3 4 4 5 4 4 3 3 4 5 6 5 5 4 3 2 2 2 2 3 3 3 4 4 5 5 6 5 7 12 10 5 4 5 6 5 3 2 8 10
9 10 12 11 10 11 12 13 14 14 11 10 14 15 14 12 11 9 9 10 10 9 9 10 8 8 10 12 11 11 12 12 13 13 12 10 6 6 7 7 8 9 11 10 7 6 3 2 3 3 3 2 2 2 3 4 5 5 5 5 5 3 2 2 2 2 4 5 5 5 5 5 6 7 6 6 5 10 11 8 9 9 7 5 2 4 9
9 12 11 11 12 12 12 12 12 12 11 10 11 14 14 13 12 10 9 10 9 8 8 7 9 7 8 11 10 10 10 11 11 13 12 9 10 9 9 10 11 9 9 8 6 5 5 3 3 2 2 1 1 2 3 3 4 6 6 6 5 3 2 2 2 3 3 4 5 6 7 7 7 7 7 8 7 4 6 9 11 12 11 10 8 6 9
11 12 12 12 11 10 9 10 10 10 10 11 12 12 14 14 13 10 10 11 9 7 8 7 8 8 6 9 10 10 10 11 12 12 9 10 10 11 12 12 10 8 8 7 6 4 4 4 3 3 4 4 4 4 3 4 5 6 6 5 4 1 1 1 2 2 3 4 4 4 5 6 7 7 7 6 5 6 6 4 5 8 12 14 13 10 8
12 12 14 12 6 8 9 10 10 12 14 13 13 14 14 13 13 12 9 10 10 7 7 7 6 6 6 7 8 9 8 9 10 11 10 10 11 10 10 10 10 10 9 7 6 4 3 3 4 4 5 6 6 4 3 4 5 5 5 5 3 2 3 2 1 2 3 3 4 4 5 5 5 6 6 5 5 6 6 7 6 4 2 5 10 13 6
12 13 11 11 12 14 15 14 13 14 14 14 14 14 12 11 9 9 11 12 10 6 6 6 6 6 7 8 7 9 10 10 10 11 11 10 10 9 9 11 9 9 7 6 5 6 6 6 6 6 6 7 7 6 5 4 3 4 4 5 4 2 2 2 1 2 3 3 3 4 4 4 4 4 4 5 5 5 5 4 5 5 4 4 4 8 13
14 13 12 11 12 13 13 12 10 10 10 10 11 10 10 11 11 11 12 12 10 7 7 7 6 6 7 7 6 7 7 7 9 11 10 10 10 10 10 11 9 7 6 6 6 8 8 7 6 6 6 8 8 7 5 4 3 3 4 4 3 2 2 1 1 2 2 3 3 4 4 5 5 5 4 4 4 5 5 5 5 5 6 6 7 8 8
14 13 12 13 14 13 13 11 11 12 12 9 7 8 9 10 9 9 10 9 7 9 9 7 7 8 7 7 6 6 6 8 8 8 8 8 8 9 10 10 7 6 8 9 10 9 8 7 7 6 7 9 9 7 6 5 3 3 3 3 3 2 1 0 1 3 3 3 4 5 5 5 4 5 5 4 4 5 5 5 6 7 7 6 6 7 9
14 13 13 13 16 16 15 13 12 12 12 10 6 8 9 10 10 8 9 8 7 8 5 6 8 8 7 8 7 5 4 6 6 6 6 6 7 8 8 9 7 7 6 7 9 9 9 8 7 7 8 8 8 7 6 6 5 3 3 2 2 2 2 2 2 3 3 4 4 4 4 4 5 5 7 6 6 6 6 7 7 6 6 8 7 8 9
14 14 13 12 13 15 15 13 12 13 12 12 5 8 8 9 12 12 9 7 8 6 4 8 10 10 9 7 7 6 6 5 4 3 4 5 5 6 7 6 6 6 6 7 7 7 7 7 8 8 9 8 7 6 5 5 5 5 4 2 1 2 3 5 4 4 4 3 3 4 4 5 4 4 6 6 6 6 7 8 7 6 5 6 8 7 6
14 13 12 15 15 14 15 15 14 15 15 13 10 6 7 8 9 10 9 8 7 7 7 9 10 9 7 6 5 5 4 1 2 4 5 5 5 4 5 5 5 6 6 7 7 6 6 6 6 7 7 7 6 6 6 5 5 5 5 3 1 2 3 3 4 4 3 4 3 4 4 4 5 5 5 6 6 7 8 8 8 8 9 8 8 7 5
14 13 14 15 14 15 16 16 14 14 14 13 10 6 5 7 8 8 8 7 6 7 7 8 9 6 4 4 3 1 0 1 0 2 3 4 4 4 4 4 3 4 5 6 8 8 7 7 6 4 4 5 5 5 6 7 6 5 6 6 4 1 3 3 4 4 4 3 4 5 4 5 4 5 5 5 5 5 6 6 6 7 7 8 7 5 5
12 12 12 12 13 14 16 13 14 14 13 14 12 11 5 6 7 8 8 7 7 7 6 6 5 3 3 2 2 1 0 1 1 1 3 3 4 4 4 3 3 3 4 7 8 8 9 8 6 4 2 4 5 6 6 8 7 5 5 5 5 3 1 3 3 3 4 4 5 5 5 5 5 6 7 7 6 7 8 8 8 7 6 9 9 8 8
13 13 12 12 12 13 14 14 14 16 14 12 11 11 12 8 3 5 7 8 7 6 5 3 3 2 2 3 2 2 1 1 1 1 1 2 2 3 4 4 5 5 5 5 8 8 9 8 9 8 3 5 5 7 7 7 7 6 5 5 5 4 3 3 3 4 3 4 5 5 5 6 6 6 7 7 7 7 8 9 9 8 8 9 9 10 9
12 12 12 12 12 13 14 14 14 14 14 14 13 15 16 13 10 6 3 5 5 4 3 4 4 5 5 4 5 4 4 2 2 1 1 2 2 4 5 5 5 5 5 5 7 8 7 6 8 8 4 5 7 9 10 11 6 6 7 7 7 6 4 3 4 4 4 4 4 6 7 7 6 6 6 7 8 8 9 9 10 9 8 9 10 12 12
9 11 12 12 12 13 12 13 14 15 17 17 15 16 16 13 11 10 9 6 4 6 6 7 7 6 6 6 6 6 5 4 3 2 1 2 2 6 7 6 4 3 3 3 5 5 5 6 9 6 6 7 8 8 11 15 13 8 7 8 8 7 7 5 5 5 5 5 5 6 6 6 6 6 7 8 8 9 9 10 10 11 9 7 9 10 9
9 9 10 10 11 13 13 13 14 15 17 18 16 17 17 15 14 14 11 10 9 7 8 8 8 8 7 7 6 6 5 4 4 3 3 4 4 8 8 4 3 2 1 2 3 3 6 8 7 8 10 9 9 9 12 16 16 11 10 10 11 9 9 9 8 8 7 8 7 8 9 9 8 8 7 8 8 9 10 11 11 11 12 10 9 9 8
5 7 9 9 10 11 12 13 14 14 14 15 17 18 17 16 15 16 15 14 12 10 8 6 8 8 7 7 7 7 5 4 3 3 2 2 4 7 6 5 4 2 3 6 4 5 10 14 11 8 9 10 10 9 10 14 15 11 10 11 11 11 9 8 9 9 9 9 11 11 10 10 9 9 9 9 10 9 8 9 11 11 11 11 10 8 8
6 7 8 9 10 10 11 12 12 12 13 14 15 16 17 16 16 18 14 12 13 14 14 11 9 9 9 9 9 8 7 6 6 5 4 3 5 6 7 7 5 4 5 6 7 9 11 12 10 9 10 10 9 11 10 14 11 9 10 10 11 11 11 12 10 9 9 10 10 10 10 10 10 11 10 11 11 10 10 10 9 8 8 9 9 10 10
7 6 8 10 10 11 11 11 12 13 14 14 14 14 16 17 17 16 15 15 15 16 15 15 18 13 9 9 10 9 9 8 8 8 9 8 6 5 8 7 6 5 9 9 10 10 9 9 10 11 9 10 12 18 17 12 9 9 9 9 11 12 13 14 12 12 11 11 12 11 11 10 10 9 9 11 12 12 11 11 10 10 9 9 10 9 9
5 7 7 8 9 9 10 11 11 12 12 13 14 13 13 13 14 15 16 16 16 16 16 14 15 16 14 11 9 10 9 8 8 8 8 9 8 7 7 5 5 6 10 9 9 8 9 11 11 10 15 14 13 20 17 11 9 10 11 12 13 13 13 12 13 13 12 12 13 12 13 12 11 11 12 11 11 11 12 12 11 10 9 9 10 10 10
3 4 4 5 6 7 7 8 8 9 10 11 10 12 13 14 14 14 14 15 17 17 16 15 15 15 14 13 12 11 11 10 9 7 6 7 8 10 9 7 6 9 13 8 8 9 10 11 11 17 22 22 21 19 12 11 11 11 12 12 14 15 15 14 13 12 12 13 13 12 13 13 13 13 11 11 11 12 11 11 9 9 10 10 11 11 11
2 1 2 3 3 4 6 7 8 9 7 7 9 11 12 13 14 14 14 14 15 16 15 15 15 15 14 13 11 10 10 10 10 9 9 9 9 9 9 9 8 7 11 13 9 10 10 11 16 22 20 22 22 20 11 10 11 11 10 11 11 12 14 15 15 14 14 15 14 14 14 14 13 13 13 13 12 12 12 10 10 10 10 10 11 11 11
3 1 1 4 4 3 4 5 5 6 6 7 8 11 11 11 11 12 13 14 14 14 13 14 15 15 14 14 13 11 11 11 12 12 11 9 9 7 7 10 7 9 14 15 9 10 11 20 20 19 20 20 20 15 13 13 12 12 11 11 12 13 12 12 12 12 13 13 13 13 13 14 14 14 13 13 11 11 11 12 11 10 11 10 10 10 10
5 5 3 2 2 3 4 4 5 7 8 8 10 10 10 10 9 9 11 12 12 12 12 12 13 13 13 12 12 12 12 11 12 12 11 10 11 11 11 14 14 18 14 11 10 10 11 14 18 21 20 21 19 12 12 12 13 13 13 13 12 11 11 11 11 11 13 14 15 16 17 15 13 13 12 12 12 11 10 10 10 10 10 10 9 10 9
4 4 4 3 2 3 4 4 5 6 7 8 7 7 8 8 9 9 9 10 11 11 11 11 10 11 11 12 12 11 10 9 11 12 11 11 10 10 9 8 11 15 16 16 19 19 25 23 23 22 22 20 14 12 12 12 12 11 11 11 11 12 11 11 11 11 12 12 13 14 13 13 12 13 12 12 11 10 10 9 9 9 8 8 9 8 9
5 4 3 3 4 3 3 4 4 4 4 4 6 6 6 7 8 8 8 8 9 9 9 9 10 10 9 10 10 10 9 9 9 8 8 9 9 9 10 12 17 17 10 10 11 12 20 22 21 21 20 17 12 12 11 11 11 11 11 11 11 12 11 11 10 10 11 11 11 12 12 13 12 12 12 11 10 9 9 9 8 8 7 7 7 8 8
5 6 7 6 5 5 2 4 4 3 3 4 4 3 3 5 7 7 7 7 7 8 6 6 6 7 7 7 7 7 8 9 9 9 8 9 9 9 10 10 11 17 16 12 12 11 15 21 20 19 15 10 10 10 10 10 10 11 11 12 11 11 12 13 13 15 13 12 12 12 12 11 12 13 12 10 10 9 9 9 9 11 15 10 8 8 7
5 6 5 5 5 3 3 3 3 4 2 2 2 1 2 3 5 6 6 7 6 6 6 5 5 5 5 6 6 7 7 6 6 9 7 7 7 10 11 9 10 11 11 11 11 10 10 10 11 11 12 11 10 10 10 10 10 11 12 10 11 10 10 11 10 11 11 11 11 11 11 11 11 10 10 9 10 9 9 9 9 8 8 8 8 7 7
4 4 4 4 4 5 5 6 6 4 3 2 1 2 3 4 4 4 5 7 5 5 5 5 5 4 4 5 5 6 6 6 7 6 7 6 6 6 8 11 8 9 10 9 10 10 10 10 11 14 13 10 9 10 12 15 11 11 11 11 11 11 11 10 10 10 10 10 10 10 10 10 9 9 9 9 9 9 9 9 9 8 8 8 7 7 6
Wind_Direction
249 259 276 284 279 261 268 270 273 280 283 289 262 250 246 281 227 241 233 213 232 258 265 255 247 177 207 218 222 211 218 230 235 232 217 203 203 201 191 186 183 186 184 186 186 183 184 180 179 179 180 180 179 179 178 179 179 182 179 180 184 186 188 192 195 195 194 195 196 196 197 197 199 200 201 201 201 202 202 206 209 210 211 212 215 218 221
269 277 272 270 262 260 257 252 250 257 269 272 260 253 250 244 258 299 240 223 233 249 276 331 310 259 225 235 245 280 247 228 222 215 209 201 197 193 189 186 186 186 186 184 183 181 177 177 179 178 177 177 179 179 180 180 182 180 174 182 183 186 190 194 194 192 191 192 193 194 195 197 200 201 201 201 201 202 204 207 209 209 211 214 217 219 221
277 278 279 259 235 248 267 259 263 274 281 280 259 245 247 243 267 262 264 254 259 259 38 330 312 332 305 325 327 291 270 259 218 203 200 196 193 192 188 184 184 185 184 182 176 174 177 179 179 179 180 180 179 180 179 179 181 179 177 180 183 186 192 193 190 188 188 192 190 194 196 198 200 202 203 200 201 203 206 206 207 207 209 214 217 219 220
302 280 224 254 281 269 246 264 271 297 332 334 328 177 286 193 226 255 260 266 262 332 337 332 348 21 27 6 346 338 323 292 228 205 199 193 188 186 187 185 183 181 179 172 173 178 180 181 180 180 179 176 174 181 180 181 180 174 177 180 184 188 191 187 186 187 190 189 192 196 195 200 200 201 201 201 204 206 206 206 208 207 211 214 216 219 221
264 256 283 309 310 291 224 238 253 289 322 338 316 29 33 16 217 207 227 248 355 309 308 326 7 25 28 19 0 344 332 318 273 227 205 196 189 185 183 182 181 180 178 177 178 180 179 180 182 183 177 174 182 182 180 179 169 173 179 181 183 187 188 186 187 187 187 189 194 196 198 199 199 198 200 203 206 207 209 209 208 208 213 213 216 218 221
254 294 308 295 230 193 210 141 142 81 34 12 13 37 6 355 23 269 223 268 296 320 330 29 44 42 38 14 340 335 336 322 303 266 233 207 201 191 185 182 180 181 179 179 181 179 179 182 184 179 176 183 183 175 167 161 171 173 175 179 182 186 185 186 187 186 188 191 195 198 198 198 199 199 200 204 206 207 209 209 211 214 215 216 217 217 220
274 299 328 157 183 215 144 137 53 24 91 39 347 314 24 5 4 6 357 345 337 322 303 284 161 130 115 2 16 10 1 350 332 271 220 204 189 198 192 186 183 177 176 177 177 178 184 182 173 166 174 158 134 150 163 170 171 170 174 177 180 183 185 186 186 189 190 193 197 198 199 199 199 202 202 206 207 207 207 207 209 214 215 215 218 218 220
323 357 296 186 196 51 99 141 47 27 87 39 352 262 29 16 11 356 350 339 333 321 316 312 295 280 302 290 26 14 1 355 344 328 274 203 181 188 193 187 181 175 176 174 174 181 171 158 165 171 167 160 162 167 167 166 168 171 173 178 184 183 186 188 189 190 189 194 198 198 199 199 200 203 205 206 207 206 208 212 215 215 217 218 219 220 220
173 228 212 236 324 316 19 6 359 11 347 330 346 325 32 15 5 359 347 341 343 342 332 309 298 293 254 24 18 4 356 349 343 334 323 276 185 162 160 164 173 164 160 162 158 141 152 164 164 165 156 158 157 155 162 166 168 171 174 181 185 184 187 189 190 190 191 195 198 199 198 198 201 204 206 208 210 205 209 211 211 211 217 213 217 219 219
190 129 297 322 137 168 197 154 294 304 269 285 279 269 310 9 358 351 349 350 343 341 341 338 320 288 38 23 355 349 345 341 342 347 359 6 87 132 121 118 119 121 120 118 129 139 143 153 155 150 152 153 153 159 165 165 169 176 179 187 185 183 189 190 193 191 194 195 198 198 196 199 202 206 208 208 208 203 205 208 211 212 210 217 217 217 219
28 354 208 247 178 153 121 314 316 309 305 288 209 226 46 6 347 343 343 351 355 353 344 338 351 63 61 14 348 339 339 334 348 1 10 20 27 71 135 136 134 134 135 135 133 131 136 140 147 145 149 151 155 161 166 170 174 179 187 188 185 187 192 193 193 193 195 196 199 197 197 203 204 206 206 207 207 200 205 210 216 214 215 217 218 218 218
223 231 276 268 231 233 336 321 316 311 318 50 140 137 54 351 337 336 339 357 359 349 346 339 19 40 63 13 337 329 327 337 360 16 22 25 33 44 46 89 126 130 129 125 134 144 154 157 150 148 149 154 160 163 170 169 176 186 191 191 190 193 193 193 194 194 195 197 199 197 201 205 205 208 208 206 201 197 206 207 213 213 213 214 217 218 215
229 226 245 290 316 9 338 327 316 318 323 182 96 122 7 325 327 329 339 356 1 355 359 359 23 3 357 324 300 324 2 7 10 10 25 35 41 43 49 51 72 99 107 124 139 148 153 152 154 155 157 161 167 166 163 170 185 187 184 183 187 195 196 194 194 195 197 199 200 202 204 205 205 207 204 206 203 202 205 205 212 215 213 214 218 224 218
226 213 209 223 212 97 313 330 323 333 42 92 119 86 29 332 333 336 341 356 356 358 5 358 348 327 319 320 349 19 14 11 17 19 26 39 44 45 48 52 59 80 89 92 93 88 107 130 135 137 136 133 131 133 141 152 154 148 151 172 181 190 194 197 197 196 197 201 203 205 206 203 203 209 209 208 205 204 205 206 209 214 214 217 220 224 222
211 211 207 140 199 339 355 321 359 16 42 60 27 2 358 347 339 349 346 360 350 358 357 350 343 330 329 358 18 21 18 16 16 18 20 27 33 36 39 42 36 63 77 77 78 88 94 106 116 119 114 112 114 115 112 130 148 144 150 149 168 180 191 199 203 200 197 197 199 202 204 201 202 208 206 205 205 202 203 205 208 213 214 213 217 223 226
262 85 72 128 347 322 349 12 66 72 27 9 17 8 355 351 355 354 348 346 352 349 353 343 343 344 338 357 3 13 16 15 13 17 19 22 26 28 38 44 39 43 71 69 73 72 78 85 99 112 115 114 113 106 113 162 141 142 141 151 157 172 185 196 201 205 204 201 200 202 203 200 202 207 204 203 203 201 201 203 205 211 213 211 213 220 224
63 16 28 29 323 355 33 41 51 57 26 21 20 15 11 351 344 341 343 340 339 346 337 342 339 341 360 346 353 13 8 15 19 18 18 20 22 21 19 27 35 42 56 65 66 68 67 76 78 85 102 109 102 103 137 143 144 131 131 123 141 168 184 191 196 202 203 206 207 205 203 196 199 205 207 199 201 202 198 202 205 208 212 205 209 215 220
307 226 41 43 360 353 20 59 57 41 14 10 20 9 359 352 331 337 337 331 332 339 335 335 334 0 353 351 348 5 8 13 11 15 17 15 12 8 10 19 20 41 49 58 62 66 66 66 74 76 76 91 97 114 136 132 138 126 125 120 117 144 163 181 193 190 198 210 212 213 210 201 202 203 203 199 203 201 197 203 204 206 210 206 210 212 217
338 146 54 25 344 319 315 123 94 80 31 14 1 1 2 344 332 330 333 331 329 338 337 344 339 356 360 348 348 2 14 11 9 8 10 9 8 10 8 1 7 33 47 52 56 59 68 58 72 73 80 78 95 119 116 117 108 110 98 102 112 120 149 172 176 180 193 199 202 207 211 211 209 204 200 200 203 202 199 201 202 206 207 206 208 206 214
330 342 6 5 329 291 263 145 84 65 17 352 338 351 343 335 322 319 321 329 327 341 339 341 341 349 6 1 352 353 2 13 12 9 7 6 1 0 3 2 10 27 44 47 51 64 72 69 74 80 83 88 95 93 86 83 85 82 76 74 77 78 109 153 170 177 189 198 193 200 203 204 206 206 204 200 199 201 198 197 199 203 202 204 206 204 208
306 284 3 352 341 65 83 60 39 8 347 333 322 329 325 320 321 320 318 322 321 331 330 336 345 353 358 1 354 350 350 352 6 11 1 359 358 356 4 1 8 12 24 49 46 61 69 73 78 80 83 83 80 77 73 69 72 74 74 67 58 43 34 105 159 183 186 189 188 189 189 150 47 28 305 230 216 211 200 204 204 200 202 206 204 206 205
355 2 337 345 343 319 318 317 318 321 325 321 311 308 308 303 309 311 309 312 320 327 327 339 343 354 346 347 353 351 349 343 344 353 357 359 357 354 354 359 9 8 3 13 48 42 33 35 66 71 67 63 58 69 79 86 86 86 93 91 79 49 18 14 40 177 171 186 171 164 149 142 134 86 61 82 44 317 158 10 21 360 196 204 203 194 200
319 326 323 322 303 291 285 296 305 302 300 297 293 292 288 285 274 273 288 294 306 321 320 325 341 348 336 331 343 343 348 338 334 341 344 353 355 351 348 359 2 0 1 355 10 35 8 17 53 59 60 56 57 51 65 86 96 101 105 99 104 105 56 11 354 146 150 131 130 126 138 140 144 139 126 53 49 50 54 60 65 68 84 80 158 189 182
298 313 322 318 307 299 299 296 290 288 284 277 274 275 275 271 271 266 267 277 284 292 294 306 321 335 325 325 334 335 334 334 335 332 336 341 346 337 349 359 356 360 355 349 345 339 339 41 79 76 78 31 155 160 155 157 139 120 111 100 94 83 36 6 32 90 118 133 136 137 145 147 153 160 146 119 66 38 43 57 70 70 65 68 106 192 206
319 320 313 313 307 296 288 281 279 276 275 262 259 265 267 266 260 248 251 264 255 263 279 286 300 313 327 317 323 327 328 322 326 329 332 336 340 349 353 354 356 352 339 331 320 322 328 351 32 65 133 176 310 14 36 63 70 76 78 81 89 78 57 45 75 111 115 134 149 151 154 159 166 168 165 169 138 116 37 54 73 69 53 42 45 106 131
324 320 319 316 298 287 287 293 283 273 262 254 251 256 258 257 253 247 245 253 257 249 259 270 282 298 321 315 315 319 324 324 327 330 332 340 342 346 347 344 336 329 328 329 322 319 340 347 344 345 1 340 17 1 4 30 55 73 83 90 115 152 152 138 126 144 140 147 156 167 165 167 169 173 179 168 146 139 135 134 85 65 59 47 34 37 64
326 320 324 322 311 322 320 313 299 296 289 273 254 245 248 251 252 247 247 248 248 242 251 262 268 288 305 300 306 310 317 321 334 337 334 335 341 338 327 322 329 325 325 327 320 330 349 345 356 360 345 334 338 345 23 28 52 69 81 85 80 33 41 87 178 162 166 153 155 158 164 171 168 177 160 138 147 151 161 156 142 122 107 35 31 26 44
331 329 329 329 328 325 318 308 296 287 277 268 261 248 242 250 249 249 245 247 239 237 252 256 266 279 291 293 310 311 324 334 334 329 331 332 333 329 325 322 321 322 327 334 338 340 351 352 358 356 330 334 333 337 360 14 46 81 91 93 75 67 16 40 117 150 163 159 155 154 158 148 149 140 129 141 149 153 133 117 120 122 100 55 62 58 71
336 330 322 324 320 308 301 295 295 295 299 287 266 242 238 243 244 241 239 230 228 234 239 248 258 266 270 282 298 305 313 319 328 328 325 326 334 331 330 327 323 335 357 353 357 359 356 0 360 351 335 336 329 334 331 329 31 58 75 78 82 76 26 340 162 125 123 116 130 135 132 128 131 132 141 133 135 136 129 124 112 102 110 124 115 89 76
337 332 328 332 328 326 329 334 330 323 319 306 258 241 238 245 245 235 234 232 220 220 219 228 253 255 256 267 272 288 308 317 315 312 323 332 329 334 336 336 334 2 11 12 1 354 354 353 358 358 337 329 325 325 323 319 347 30 78 95 107 113 247 183 121 99 102 120 128 127 125 138 140 139 132 125 126 127 120 117 127 133 133 138 131 129 131
333 327 327 335 337 340 344 341 334 330 323 318 257 236 239 248 249 245 234 232 229 229 226 235 244 250 246 249 248 254 273 291 303 314 325 331 339 345 347 356 11 8 1 356 353 358 356 352 350 344 333 325 321 322 327 327 336 12 37 61 72 80 90 90 89 108 122 128 130 132 131 130 135 133 132 133 125 121 125 130 136 134 141 141 134 130 133
338 337 336 345 347 346 345 345 344 338 331 325 290 221 224 231 245 248 248 241 242 240 234 252 251 232 227 234 240 239 255 268 287 318 331 343 356 353 355 3 1 8 6 3 7 7 2 356 347 334 329 323 327 336 344 347 341 349 342 15 65 68 96 117 108 109 126 124 129 133 141 138 133 130 133 143 144 142 141 140 140 142 130 122 122 120 129
343 345 351 351 352 353 351 348 347 344 339 327 315 267 211 226 239 250 253 252 257 255 242 239 248 248 233 224 214 224 230 211 341 345 345 347 352 351 357 15 11 6 5 3 355 356 359 354 338 328 326 326 339 354 3 9 17 12 2 2 12 78 100 91 111 113 104 109 116 122 123 114 123 130 140 147 147 146 141 138 139 136 131 123 120 127 132
351 352 345 345 347 349 347 344 348 348 342 335 329 311 218 212 220 235 244 246 247 250 248 254 257 268 281 278 290 279 55 77 332 315 338 322 335 341 357 11 2 22 11 359 353 355 348 335 326 324 320 333 351 360 10 23 27 26 17 8 1 33 72 96 121 113 114 115 118 117 107 109 116 123 120 116 108 108 111 114 110 111 107 97 90 73 72
345 346 348 345 347 353 357 353 351 352 349 348 345 341 311 217 214 222 224 228 234 241 246 256 272 263 221 201 179 279 105 197 183 330 339 347 342 346 4 12 0 7 5 8 2 344 332 318 318 309 333 17 20 25 29 42 37 31 25 23 13 346 55 112 106 119 128 131 128 118 115 113 114 109 104 102 106 109 107 99 98 94 79 92 90 78 54
350 349 349 350 350 350 358 1 359 357 357 344 344 358 356 346 271 215 222 226 223 222 232 234 208 168 109 106 105 78 69 48 51 14 349 11 9 353 23 24 19 21 12 353 354 337 333 318 345 357 21 46 33 29 40 58 51 43 33 37 30 14 10 50 59 74 80 116 114 104 106 109 109 105 104 104 93 87 91 94 94 89 92 91 88 80 72
353 350 348 352 353 352 1 6 5 7 5 6 7 6 2 2 358 340 260 229 222 205 171 150 122 116 101 91 89 78 63 37 22 358 1 14 25 51 46 38 19 17 19 2 342 331 326 346 2 16 15 47 51 54 51 61 69 58 52 45 39 28 6 41 54 63 69 53 88 109 108 105 100 93 87 90 97 97 95 96 93 87 83 87 89 93 91
350 352 353 353 353 357 360 4 7 14 13 10 8 12 8 2 5 23 29 30 70 105 112 111 109 108 100 93 80 79 75 60 45 30 24 32 60 74 55 46 29 352 12 355 320 317 332 1 13 21 27 35 40 50 59 61 66 65 58 56 48 39 19 12 37 51 57 52 44 68 80 76 76 73 78 86 86 97 100 99 98 94 82 80 92 93 91
1 357 2 358 358 1 1 6 12 17 20 22 17 18 14 13 16 24 27 30 35 56 84 95 95 86 81 81 78 68 63 70 84 90 109 116 114 86 73 53 35 18 309 275 308 2 23 26 27 33 37 33 39 46 55 61 67 67 65 65 59 48 43 36 33 26 43 61 65 69 72 67 65 64 69 81 83 81 79 84 87 89 87 80 71 68 65
6 6 2 1 9 5 8 9 12 13 18 26 28 23 15 19 23 30 29 27 27 36 42 48 79 83 79 81 78 69 52 41 41 55 57 86 105 98 99 64 23 6 38 40 19 42 44 40 39 39 39 38 43 46 55 64 71 70 69 70 71 66 58 49 50 46 32 34 64 67 67 69 69 68 65 69 73 66 54 69 77 84 86 83 76 69 68
4 2 2 9 10 14 16 13 11 13 19 22 25 27 25 25 26 32 25 21 22 33 40 40 47 57 60 66 68 63 50 36 28 22 7 33 62 70 71 53 352 356 31 49 49 52 52 51 46 44 45 44 45 55 57 64 63 68 75 76 77 75 69 63 60 52 51 50 41 48 58 65 67 71 65 65 65 67 63 58 52 53 65 75 77 74 67
357 1 3 6 10 13 16 13 14 19 23 23 22 25 27 29 33 33 28 28 29 35 35 32 37 39 36 48 61 61 54 44 45 42 42 42 34 44 64 49 345 23 49 49 53 54 49 50 55 58 53 57 62 68 69 66 61 67 72 74 81 81 81 74 67 66 68 67 63 58 49 44 49 54 62 71 68 68 65 60 57 55 45 57 67 67 64
360 6 12 11 10 12 15 16 18 18 22 23 22 23 24 28 33 35 33 31 33 35 35 31 31 33 30 24 32 45 43 35 38 34 41 42 35 34 42 35 356 41 52 59 58 56 58 62 64 62 68 70 73 73 68 63 62 66 71 73 75 76 78 81 87 84 74 69 71 72 71 62 50 41 43 51 56 63 68 66 62 59 54 52 58 62 60
10 14 22 24 19 16 18 19 19 22 24 23 23 26 27 30 30 33 35 34 32 32 34 32 31 31 28 26 31 35 34 29 29 24 36 34 32 28 19 24 9 50 54 49 59 63 65 66 68 71 70 71 72 71 68 66 65 67 68 71 75 77 77 76 73 75 82 85 79 70 69 72 73 67 51 43 47 52 57 61 59 56 55 55 56 59 59
45 46 50 59 36 34 26 26 26 23 17 18 25 34 36 34 32 29 31 34 35 32 28 29 29 28 26 25 24 26 32 33 31 23 32 36 36 25 2 12 23 26 51 56 59 65 69 70 74 74 74 73 72 71 68 67 64 63 62 69 71 76 78 78 79 78 76 75 78 80 79 75 67 68 76 69 54 52 52 52 56 56 56 57 56 59 60
8 354 60 74 60 45 37 42 36 31 27 26 34 37 37 40 41 38 33 32 35 34 31 27 25 23 21 23 20 18 28 34 31 27 27 23 30 20 27 38 25 42 52 53 51 57 65 69 72 75 76 76 75 73 72 71 70 68 64 63 66 71 72 77 78 77 78 80 80 78 76 78 78 73 67 67 66 65 60 59 58 57 56 57 56 57 56
5 355 1 65 88 71 62 45 49 46 33 32 37 35 29 31 40 45 46 42 38 34 30 29 28 24 18 19 21 21 20 25 29 26 20 15 14 17 20 30 44 57 57 54 55 55 56 58 58 60 65 69 70 71 71 71 71 71 71 69 69 71 73 72 70 74 75 77 78 78 78 78 79 78 77 77 75 72 69 64 61 58 58 58 56 56 55
18 15 357 354 48 94 87 66 51 47 41 39 37 37 31 29 33 38 45 51 47 39 33 29 27 24 22 18 13 21 26 24 33 23 11 14 10 11 17 27 29 42 52 58 58 56 56 57 59 60 60 60 60 63 62 63 64 65 69 74 73 74 74 76 76 76 78 76 78 81 83 82 80 82 83 81 79 78 77 75 73 69 63 63 62 57 57
11 5 6 25 17 16 69 91 76 66 57 48 45 40 36 40 36 34 37 43 52 51 43 36 29 23 21 23 22 8 14 27 34 30 9 15 17 15 16 18 23 28 34 43 51 58 57 56 55 56 58 60 60 62 63 62 65 67 64 64 68 70 71 72 73 75 76 77 78 81 83 83 84 84 84 83 83 80 78 77 76 75 76 72 68 63 60
14 17 14 6 10 360 3 98 97 92 97 93 72 55 37 41 52 43 34 29 37 52 52 51 43 29 15 12 3 12 8 17 26 31 25 21 21 26 22 21 28 35 37 38 42 40 45 50 54 56 55 51 53 56 62 62 61 62 65 66 65 65 66 70 73 73 76 77 77 76 77 79 82 82 83 83 83 83 82 78 75 69 67 65 60 55 53
22 24 4 357 354 352 24 59 95 118 123 96 123 18 32 36 58 63 51 40 15 31 31 43 47 32 21 10 8 5 12 16 33 49 40 32 29 27 31 29 28 31 31 34 35 41 44 46 46 45 50 52 53 54 53 54 58 63 63 62 62 63 63 61 64 67 66 70 74 75 76 77 76 76 76 77 78 77 77 75 72 68 64 61 58 54 50
32 23 12 12 13 20 35 44 45 56 78 96 81 57 58 48 45 51 53 60 41 28 25 16 39 37 43 22 14 8 10 36 36 38 53 54 44 33 25 29 24 27 32 35 39 41 42 45 53 57 56 54 52 58 64 63 59 61 61 62 62 62 61 60 60 60 60 61 62 65 65 65 65 68 68 68 68 69 66 66 65 64 62 57 52 48 43